Location: Newark
(51.3318°N, 0.0053°E)
Time: 20:26:43
(UTC+00:00)

LO-87 - Pass Details

Date: 06 July 2022
Orbit: 451 x 466 km, 97.4° (Epoch: 11 August)

Event Time Altitude Azimuth Distance (km) Brightness Sun altitude
Exits shadow 23:51:29 30° 213° (SSW) 852 ? -16.0°
Maximum altitude 23:52:41 43° 261° (W) 670 ? -16.0°
Drops below altitude 10° 23:56:03 10° 334° (NNW) 1,637 ? -16.0°
Sets 23:58:11 0° 342° (NNW) 2,522 ? -16.0°
